• In Uzbekistan
  • List of Countries
  • For 7 days
  • Water Temperature
  • Satellite Maps
  • Weather Map
  • Weather Widgets
  • user-avatar
    Login

    Hourly Weather Bad Saulgau

    Today, 21 April, Saturday

    Time Temperature Precipitation Wind Pressure Humidity
    00:00 +14°C° 0 mm 1 mps 711 mmHg 79%
    01:00 +14°C° 0 mm 1 mps 710 mmHg 75%
    02:00 +14°C° 0 mm 1 mps 710 mmHg 76%
    03:00 +14°C° 0 mm 1 mps 710 mmHg 77%
    04:00 +13°C° 0 mm 1 mps 710 mmHg 78%
    05:00 +14°C° 0 mm 1 mps 710 mmHg 78%
    06:00 +15°C° 0 mm 1 mps 710 mmHg 77%
    07:00 +15°C° 0 mm 2 mps 710 mmHg 70%
    08:00 +18°C° 0 mm 1 mps 710 mmHg 65%
    09:00 +20°C° 0 mm 1 mps 710 mmHg 61%
    10:00 +23°C° 0 mm 1 mps 711 mmHg 56%
    11:00 +24°C° 0 mm 1 mps 711 mmHg 53%
    12:00 +25°C° 0 mm 1 mps 710 mmHg 50%
    13:00 +26°C° 0 mm 1 mps 710 mmHg 47%
    14:00 +26°C° 0 mm 1 mps 710 mmHg 47%
    15:00 +25°C° 0 mm 1 mps 710 mmHg 48%
    16:00 +25°C° 0 mm 1 mps 709 mmHg 49%
    17:00 +23°C° 0 mm 1 mps 709 mmHg 56%
    18:00 +21°C° 0 mm 1 mps 709 mmHg 64%
    19:00 +19°C° 0 mm 1 mps 708 mmHg 71%
    20:00 +18°C° 0 mm 1 mps 709 mmHg 74%
    21:00 +16°C° 0 mm 1 mps 709 mmHg 78%
    22:00 +15°C° 0 mm 1 mps 709 mmHg 81%
    23:00 +14°C° 0 mm 1 mps 709 mmHg 83%

    Tomorrow, 22 April, Sunday

    Time Temperature Precipitation Wind Pressure Humidity
    00:00 +14°C° 0 mm 1 mps 709 mmHg 85%
    01:00 +13°C° 0 mm 1 mps 709 mmHg 87%
    02:00 +13°C° 0 mm 1 mps 708 mmHg 88%
    03:00 +13°C° 0 mm 1 mps 708 mmHg 88%
    04:00 +12°C° 0 mm 1 mps 708 mmHg 89%
    05:00 +13°C° 0 mm 1 mps 708 mmHg 87%
    06:00 +14°C° 0 mm 1 mps 708 mmHg 85%
    07:00 +14°C° 0 mm 1 mps 708 mmHg 83%
    08:00 +17°C° 0 mm 2 mps 708 mmHg 76%
    09:00 +19°C° 0 mm 2 mps 708 mmHg 68%
    10:00 +21°C° 0 mm 2 mps 708 mmHg 60%
    11:00 +23°C° 0.2 mm 2 mps 708 mmHg 58%
    12:00 +24°C° 0.2 mm 2 mps 708 mmHg 56%
    13:00 +24°C° 0.2 mm 2 mps 708 mmHg 53%
    14:00 +25°C° 0 mm 2 mps 708 mmHg 52%
    15:00 +25°C° 0 mm 2 mps 708 mmHg 51%
    16:00 +25°C° 0 mm 2 mps 707 mmHg 50%
    17:00 +23°C° 0 mm 2 mps 707 mmHg 58%
    18:00 +20°C° 0 mm 2 mps 707 mmHg 65%
    19:00 +18°C° 0 mm 2 mps 707 mmHg 72%
    20:00 +17°C° 0 mm 2 mps 707 mmHg 74%
    21:00 +16°C° 0 mm 2 mps 707 mmHg 76%
    22:00 +14°C° 0 mm 2 mps 708 mmHg 78%
    23:00 +14°C° 0 mm 2 mps 708 mmHg 79%

    Day after tomorrow, 23 April, Monday

    Time Temperature Precipitation Wind Pressure Humidity
    00:00 +13°C° 0 mm 2 mps 708 mmHg 80%
    01:00 +13°C° 0 mm 2 mps 708 mmHg 81%
    02:00 +13°C° 0 mm 2 mps 708 mmHg 82%
    03:00 +12°C° 0 mm 2 mps 707 mmHg 83%
    04:00 +12°C° 0 mm 2 mps 707 mmHg 83%
    05:00 +13°C° 0 mm 2 mps 707 mmHg 83%
    06:00 +13°C° 0 mm 2 mps 708 mmHg 82%
    07:00 +14°C° 0 mm 2 mps 708 mmHg 82%
    08:00 +15°C° 0.1 mm 2 mps 708 mmHg 77%
    09:00 +17°C° 0.1 mm 2 mps 708 mmHg 71%
    10:00 +18°C° 0.1 mm 3 mps 708 mmHg 66%
    11:00 +19°C° 0.2 mm 3 mps 708 mmHg 66%
    12:00 +20°C° 0.2 mm 4 mps 708 mmHg 65%
    13:00 +20°C° 0.2 mm 5 mps 708 mmHg 65%
    14:00 +20°C° 0.6 mm 4 mps 708 mmHg 69%
    15:00 +19°C° 0.6 mm 4 mps 708 mmHg 74%
    16:00 +19°C° 0.6 mm 4 mps 708 mmHg 78%
    17:00 +17°C° 0.9 mm 3 mps 708 mmHg 83%
    18:00 +16°C° 0.9 mm 3 mps 708 mmHg 87%
    19:00 +15°C° 0.9 mm 2 mps 708 mmHg 92%
    20:00 +14°C° 0.3 mm 2 mps 709 mmHg 93%
    21:00 +13°C° 0.3 mm 2 mps 709 mmHg 94%
    22:00 +13°C° 0.3 mm 2 mps 709 mmHg 95%
    23:00 +12°C° 0.1 mm 1 mps 709 mmHg 95%

    24 April, Tuesday

    Time Temperature Precipitation Wind Pressure Humidity
    00:00 +12°C° 0.1 mm 1 mps 709 mmHg 95%
    01:00 +12°C° 0.1 mm 1 mps 709 mmHg 96%
    02:00 +11°C° 0 mm 1 mps 709 mmHg 96%
    03:00 +11°C° 0 mm 1 mps 709 mmHg 96%
    04:00 +11°C° 0 mm 1 mps 709 mmHg 96%
    05:00 +11°C° 0 mm 1 mps 709 mmHg 95%
    06:00 +12°C° 0 mm 1 mps 709 mmHg 94%
    07:00 +13°C° 0 mm 1 mps 709 mmHg 93%
    08:00 +14°C° 0 mm 2 mps 709 mmHg 86%
    09:00 +16°C° 0 mm 2 mps 710 mmHg 78%
    10:00 +18°C° 0 mm 2 mps 710 mmHg 71%
    11:00 +19°C° 0 mm 2 mps 710 mmHg 65%
    12:00 +20°C° 0 mm 3 mps 709 mmHg 59%
    13:00 +21°C° 0 mm 3 mps 709 mmHg 53%
    14:00 +21°C° 0 mm 3 mps 709 mmHg 53%
    15:00 +21°C° 0 mm 3 mps 708 mmHg 52%
    16:00 +23°C° 0 mm 2 mps 708 mmHg 52%
    17:00 +20°C° 0 mm 2 mps 708 mmHg 59%
    18:00 +18°C° 0 mm 2 mps 708 mmHg 66%
    19:00 +16°C° 0 mm 1 mps 707 mmHg 73%
    20:00 +15°C° 0 mm 1 mps 708 mmHg 76%
    21:00 +14°C° 0 mm 1 mps 708 mmHg 79%
    22:00 +12°C° 0 mm 1 mps 708 mmHg 83%
    23:00 +12°C° 0 mm 1 mps 708 mmHg 84%

    25 April, Wednesday

    Time Temperature Precipitation Wind Pressure Humidity
    00:00 +11°C° 0 mm 1 mps 708 mmHg 85%
    01:00 +11°C° 0 mm 1 mps 707 mmHg 87%
    02:00 +11°C° 0 mm 1 mps 707 mmHg 87%
    03:00 +11°C° 0 mm 1 mps 707 mmHg 88%
    04:00 +10°C° 0 mm 1 mps 706 mmHg 88%
    05:00 +11°C° 0 mm 1 mps 706 mmHg 86%
    06:00 +13°C° 0 mm 1 mps 706 mmHg 83%
    07:00 +14°C° 0 mm 1 mps 707 mmHg 81%
    08:00 +16°C° 0 mm 2 mps 707 mmHg 73%
    09:00 +18°C° 0 mm 2 mps 707 mmHg 65%
    10:00 +21°C° 0 mm 3 mps 707 mmHg 56%
    11:00 +22°C° 0.1 mm 4 mps 706 mmHg 54%
    12:00 +23°C° 0.1 mm 5 mps 706 mmHg 53%
    13:00 +23°C° 0.1 mm 5 mps 706 mmHg 51%
    14:00 +23°C° 0.4 mm 5 mps 705 mmHg 55%
    15:00 +23°C° 0.4 mm 5 mps 705 mmHg 59%
    16:00 +22°C° 0.4 mm 5 mps 704 mmHg 63%
    17:00 +21°C° 0.2 mm 4 mps 704 mmHg 68%
    18:00 +19°C° 0.2 mm 4 mps 704 mmHg 74%
    19:00 +18°C° 0.2 mm 3 mps 704 mmHg 79%
    20:00 +17°C° 0.4 mm 3 mps 704 mmHg 83%
    21:00 +16°C° 0.4 mm 3 mps 704 mmHg 86%
    22:00 +14°C° 0.4 mm 3 mps 705 mmHg 90%
    23:00 +14°C° 0.4 mm 2 mps 705 mmHg 92%

    26 April, Thursday

    Time Temperature Precipitation Wind Pressure Humidity
    00:00 +14°C° 0.4 mm 2 mps 705 mmHg 94%
    01:00 +14°C° 0.4 mm 2 mps 704 mmHg 96%
    02:00 +13°C° 0.4 mm 2 mps 704 mmHg 96%
    03:00 +13°C° 0.4 mm 2 mps 704 mmHg 96%
    04:00 +13°C° 0.4 mm 2 mps 704 mmHg 96%
    05:00 +13°C° 1.1 mm 2 mps 704 mmHg 96%
    06:00 +13°C° 1.1 mm 2 mps 704 mmHg 96%
    07:00 +13°C° 1.1 mm 2 mps 704 mmHg 96%
    08:00 +11°C° 1.7 mm 3 mps 704 mmHg 95%
    09:00 +10°C° 1.7 mm 4 mps 704 mmHg 94%
    10:00 +8°C° 1.7 mm 5 mps 705 mmHg 93%
    11:00 +8°C° 0.6 mm 4 mps 705 mmHg 90%
    12:00 +8°C° 0.6 mm 4 mps 705 mmHg 87%
    13:00 +9°C° 0.6 mm 3 mps 706 mmHg 84%
    14:00 +9°C° 0.3 mm 3 mps 706 mmHg 83%
    15:00 +9°C° 0.3 mm 3 mps 706 mmHg 81%
    16:00 +9°C° 0.3 mm 3 mps 706 mmHg 80%
    17:00 +9°C° 0.3 mm 3 mps 706 mmHg 82%
    18:00 +8°C° 0.3 mm 3 mps 706 mmHg 83%
    19:00 +8°C° 0.3 mm 2 mps 706 mmHg 85%
    20:00 +7°C° 0.3 mm 2 mps 706 mmHg 86%
    21:00 +6°C° 0.3 mm 2 mps 707 mmHg 88%
    22:00 +5°C° 0.3 mm 2 mps 707 mmHg 90%
    23:00 +5°C° 0.1 mm 2 mps 707 mmHg 90%
    Show more